DW9750 Weather Reports


time (UTC)temp
F
wind
direction
speed
knots
gust
knots
rain 1hr
in
rain 24hr
in
rain mn
in
humidity
%
barometer
mb
20260831234558 94 99 1.7 6.1 0.00 0.00 0.00 41 1010.5
20260831233104 94 113 2.6 7.0 0.00 0.00 0.00 41 1010.5
20260831231558 95 210 2.6 6.1 0.00 0.00 0.00 40 1010.4
20260831230110 95 91 0.9 8.7 0.00 0.00 0.00 42 1010.6
20260831224554 95 109 2.6 7.0 0.00 0.00 0.00 40 1010.6
20260831223103 95 118 2.6 9.6 0.00 0.00 0.00 42 1010.7
20260831221556 95 130 3.5 9.6 0.00 0.00 0.00 42 1010.8
20260831220048 95 143 3.5 12.2 0.00 0.00 0.00 41 1011.1
20260831214553 97 110 1.7 7.0 0.00 0.00 0.00 40 1011.2
20260831213046 96 259 2.6 5.2 0.00 0.00 0.00 40 1011.4
20260831211542 95 132 3.5 7.8 0.00 0.00 0.00 43 1011.6
20260831210039 94 122 1.7 9.6 0.00 0.00 0.00 43 1011.9
20260831204538 95 162 1.7 7.0 0.00 0.00 0.00 43 1012.1
20260831203037 94 128 2.6 8.7 0.00 0.00 0.00 44 1012.3
20260831201534 94 180 2.6 7.8 0.00 0.00 0.00 45 1012.6
20260831200031 95 98 2.6 7.8 0.00 0.00 0.00 42 1012.8
20260831194528 95 271 1.7 7.0 0.00 0.00 0.00 46 1013.1
20260831193034 94 109 3.5 7.0 0.00 0.00 0.00 43 1013.4
20260831191529 95 167 3.5 12.2 0.00 0.00 0.00 44 1013.4
20260831190025 93 251 3.5 7.8 0.00 0.00 0.00 45 1013.4
20260831184521 93 133 2.6 8.7 0.00 0.00 0.00 45 1013.7
20260831183020 93 113 4.3 12.2 0.00 0.00 0.00 46 1013.8
20260831181519 93 154 3.5 7.8 0.00 0.00 0.00 48 1014.0
20260831180020 93 177 1.7 9.6 0.00 0.00 0.00 48 1014.1
20260831174517 92 73 3.5 7.0 0.00 0.00 0.00 49 1014.2
20260831173016 91 170 2.6 8.7 0.00 0.00 0.00 50 1014.3
20260831171513 91 189 4.3 8.7 0.00 0.00 0.00 51 1014.4
20260831170008 89 234 2.6 7.8 0.00 0.00 0.00 53 1014.4
20260831164559 89 162 1.7 7.0 0.00 0.00 0.00 53 1014.4
20260831163058 88 138 3.5 9.6 0.00 0.00 0.00 54 1014.6
20260831161556 87 253 3.5 7.0 0.00 0.00 0.00 58 1014.6
20260831160052 88 142 2.6 6.1 0.00 0.00 0.00 58 1014.6
20260831154552 86 122 2.6 7.0 0.00 0.00 0.00 62 1014.6
20260831153049 85 209 4.3 8.7 0.00 0.00 0.00 64 1014.5
20260831151544 84 207 2.6 8.7 0.00 0.00 0.00 68 1014.3
20260831150041 83 166 3.5 7.8 0.00 0.00 0.00 70 1014.2
20260831144538 82 134 1.7 7.0 0.00 0.00 0.00 73 1014.3
20260831143036 81 222 1.7 7.8 0.00 0.00 0.00 77 1014.2
20260831141537 80 191 1.7 5.2 0.00 0.00 0.00 81 1014.2
20260831140039 78 188 1.7 5.2 0.00 0.00 0.00 84 1014.1
20260831134537 77 158 0.9 4.3 0.00 0.00 0.00 86 1014.3
20260831133033 76 156 0.0 0.0 0.00 0.00 0.00 89 1014.2
20260831131530 74 162 0.0 0.0 0.00 0.00 0.00 92 1014.2
20260831130027 72 87 0.0 0.0 0.00 0.00 0.00 91 1014.1
20260831124526 73 87 0.0 0.0 0.00 0.00 0.00 90 1014.0
20260831123030 73 87 0.0 0.0 0.00 0.00 0.00 91 1013.9
20260831121532 73 90 0.0 0.0 0.00 0.00 0.00 91 1013.7
20260831120022 74 114 0.0 0.0 0.00 0.00 0.00 91 1013.5
20260831114520 74 114 0.0 0.0 0.00 0.00 0.00 90 1013.6
20260831113020 74 114 0.0 0.0 0.00 0.00 0.00 90 1013.6
20260831111518 74 114 0.0 0.0 0.00 0.00 0.00 89 1013.5
20260831110017 74 114 0.0 0.0 0.00 0.00 0.00 89 1013.6
20260831104522 75 114 0.0 0.0 0.00 0.00 0.00 87 1013.6
20260831103014 75 137 0.0 0.0 0.00 0.00 0.00 87 1013.6
20260831101513 75 116 0.0 0.0 0.00 0.00 0.00 87 1013.7
20260831100019 75 133 0.0 1.7 0.00 0.00 0.00 87 1013.8
20260831094513 75 144 0.0 0.0 0.00 0.00 0.00 86 1013.7
20260831093013 75 144 0.0 2.6 0.00 0.00 0.00 85 1013.7
20260831091510 76 164 0.0 0.9 0.00 0.00 0.00 84 1013.7
20260831090009 76 164 0.0 0.9 0.00 0.00 0.00 85 1013.6
20260831084508 76 164 0.0 0.0 0.00 0.00 0.00 84 1013.5
20260831083006 76 164 0.0 1.7 0.00 0.00 0.00 83 1013.5
20260831081505 76 106 0.0 1.7 0.00 0.00 0.00 82 1013.7
20260831080011 77 154 0.0 4.3 0.00 0.00 0.00 81 1013.7
20260831074501 77 172 0.0 3.5 0.00 0.00 0.00 80 1013.8
20260831073103 77 174 0.0 3.5 0.00 0.00 0.00 78 1013.9
20260831071558 77 194 0.0 1.7 0.00 0.00 0.00 76 1013.9
20260831070112 78 99 0.0 3.5 0.00 0.00 0.00 75 1013.8
20260831064554 79 94 0.9 6.1 0.00 0.00 0.00 73 1013.8
20260831063054 79 91 0.0 3.5 0.00 0.00 0.00 72 1013.9
20260831061551 79 106 1.7 5.2 0.00 0.00 0.00 71 1013.8
20260831060048 80 80 0.9 5.2 0.00 0.00 0.00 70 1013.6
20260831054545 80 81 0.9 3.5 0.00 0.00 0.00 69 1013.4
20260831053044 81 88 2.6 6.1 0.00 0.00 0.00 67 1013.2
20260831051544 82 109 1.7 7.0 0.00 0.00 0.00 66 1013.0
20260831050037 82 73 1.7 5.2 0.00 0.00 0.00 65 1012.9
20260831044547 83 80 3.5 7.0 0.00 0.00 0.00 64 1012.9
20260831043036 83 76 1.7 7.0 0.00 0.00 0.00 65 1012.9
20260831041547 83 105 2.6 6.1 0.00 0.00 0.00 65 1012.7
20260831040035 84 57 2.6 6.1 0.00 0.00 0.00 64 1012.6
20260831034534 84 94 1.7 5.2 0.00 0.00 0.00 63 1012.4
20260831033034 85 97 2.6 6.1 0.00 0.00 0.00 63 1012.3
20260831031534 85 64 2.6 7.0 0.00 0.00 0.00 62 1012.3
20260831030032 84 102 0.9 4.3 0.00 0.00 0.00 61 1012.1
20260831024533 84 89 0.9 4.3 0.00 0.00 0.00 59 1012.0
20260831023031 84 100 0.0 1.7 0.00 0.00 0.00 58 1011.7
20260831021537 84 95 0.0 0.0 0.00 0.00 0.00 56 1011.3
20260831020030 84 80 0.9 1.7 0.00 0.00 0.00 54 1011.0
20260831014529 85 71 0.0 0.0 0.00 0.00 0.00 54 1010.9
20260831013029 86 71 0.0 0.0 0.00 0.00 0.00 52 1010.8
20260831011531 87 71 0.9 2.6 0.00 0.00 0.00 51 1010.8
20260831010026 89 80 1.7 2.6 0.00 0.00 0.00 49 1010.8
20260831004528 91 102 0.9 5.2 0.00 0.00 0.00 46 1010.7
20260831003026 92 142 0.0 5.2 0.00 0.00 0.00 45 1010.5
20260831001525 92 104 0.9 6.1 0.00 0.00 0.00 43 1010.5
20260831000036 93 127 1.7 7.0 0.00 0.00 0.00 41 1010.5